BEIDOU-2 IGSO-5

Last updated on Fri Jun 19 2026 17:09:31 GMT+0000 (Coordinated Universal Time)

1 37948U 11073A 26169.66754444 -.00000192 00000+0 00000+0 0 9998 2 37948 47.6748 271.5267 0113971 221.7702 105.6518 1.00272695 53143
UTC large
Height (km)
Speed (km/s)
/
Latitude / Longitude
Inclination (degrees)
Orbital Period (minutes)
Azimuth
Elevation
Range (km)
Doppler Factor

Next 0 passes for location: London (51.5072 / 0.1276)

No passes found over London.
BEIDOU-2 IGSO-5